Regional Weather Roundup
Issued by NWS

Home | Current Version | Previous Version | Text Only | Print | Product List | Glossary On
Versions: 1 2 3 4 5 6 7 8 9 10 11 12 13 14 15 16 17 18 19 20 21 22 23 24 25 26 27 28 29 30 31 32 33 34 35 36 37 38 39 40 41 42 43 44 45 46 47 48 49 50
000
ASPQ40 PGUM 280210
RWRPQ
WEATHER ROUNDUP FOR THE MARIANAS AND MICRONESIA
NATIONAL WEATHER SERVICE TIYAN GU
1200 PM CHST FRI AUG 28 2015

GUZ001>004-280300-
MARIANA ISLANDS-

CITY           SKY/WX    TMP DP  RH WIND       PRES   REMARKS
GUAM AIRPORT   MOSUNNY   88  73  62 NW8       29.81F HX  96
ANDERSEN AFB   MOSUNNY   86  72  62 VRB3      29.81F HX  92
ROTA AIRPORT   MOSUNNY   84  77  79 NW8       29.81F HX  94
TINIAN AP      MOSUNNY   86  72  62 W7        29.77F HX  92
SAIPAN AP      PTSUNNY   84  79  84 W8        29.79F HX  96

$$

PMZ161-280300-
REPUBLIC OF PALAU-

CITY           SKY/WX    TMP DP  RH WIND       PRES   REMARKS
KOROR AP       PTSUNNY   86  77  74 W9        29.83S HX  97
KOROR WSO      PTSUNNY   86  75  70 SW9       29.85S HX  95

$$

PMZ171>174-280300-
FEDERATED STATES OF MICRONESIA-

CITY           SKY/WX    TMP DP  RH WIND       PRES   REMARKS
YAP AIRPORT    MOSUNNY   86  77  74 W8        29.82F HX  97
CHUUK AP       LGT RAIN  81  77  89 W9        29.81F
POHNPEI AP     CLOUDY    82  77  83 NW17      29.79F HX  91
POHNPEI WSO    CLOUDY    82  77  83 W8        29.83F HX  91
KOSRAE AP      PTSUNNY   86  81  84 SW20      29.78F HX 102

$$

PMZ181-280300-
REPUBLIC OF THE MARSHALL ISLANDS-

CITY           SKY/WX    TMP DP  RH WIND       PRES   REMARKS
KWAJALEIN AP   SUNNY     88  75  66 SW7       29.78F HX  97
MAJURO AP      NOT AVBL
MAJURO WSO     MOSUNNY   86  77  74 W10       29.77F HX  97

$$




USA.gov is the U.S. government's official web portal to all federal, state and local government web resources and services.